TimePDT,TemperatureF,Dew PointF,Humidity,Sea Level PressureIn,VisibilityMPH,Wind Direction,Wind SpeedMPH,Gust SpeedMPH,PrecipitationIn,Events,Conditions,WindDirDegrees,DateUTC
12:56 AM,73.0,39.9,30,30.08,10.0,West,6.9,-,N/A,,Clear,260,2013-06-28 07:56:00
1:56 AM,68.0,39.0,35,30.08,10.0,Calm,Calm,-,N/A,,Clear,0,2013-06-28 08:56:00
2:56 AM,64.0,39.0,40,30.08,10.0,SSE,5.8,-,N/A,,Clear,150,2013-06-28 09:56:00
3:56 AM,64.9,39.9,40,30.08,10.0,SSE,4.6,-,N/A,,Clear,160,2013-06-28 10:56:00
4:56 AM,60.1,36.0,41,30.08,10.0,SE,5.8,-,N/A,,Clear,140,2013-06-28 11:56:00
5:56 AM,61.0,37.0,41,30.09,10.0,SE,5.8,-,N/A,,Clear,140,2013-06-28 12:56:00
6:19 AM,64.4,37.4,37,30.19,10.0,SSE,4.6,-,N/A,,Clear,160,2013-06-28 13:19:00
6:56 AM,70.0,39.0,32,30.09,10.0,Calm,Calm,-,N/A,,Clear,0,2013-06-28 13:56:00
7:56 AM,77.0,44.1,31,30.09,10.0,West,4.6,-,N/A,,Partly Cloudy,280,2013-06-28 14:56:00
8:56 AM,82.0,41.0,23,30.09,10.0,WNW,4.6,-,N/A,,Partly Cloudy,290,2013-06-28 15:56:00
9:56 AM,87.1,33.1,15,30.07,10.0,Variable,3.5,-,N/A,,Partly Cloudy,0,2013-06-28 16:56:00
10:56 AM,91.0,30.0,11,30.06,10.0,North,8.1,-,N/A,,Scattered Clouds,360,2013-06-28 17:56:00
11:56 AM,93.0,34.0,12,30.05,10.0,Variable,6.9,-,N/A,,Scattered Clouds,0,2013-06-28 18:56:00
12:56 PM,98.1,30.9,9,30.02,10.0,Variable,4.6,-,N/A,,Scattered Clouds,0,2013-06-28 19:56:00
1:56 PM,99.0,32.0,10,30.00,10.0,Calm,Calm,-,N/A,,Scattered Clouds,0,2013-06-28 20:56:00
2:56 PM,102.0,34.0,9,29.97,10.0,WSW,8.1,-,N/A,,Mostly Cloudy,240,2013-06-28 21:56:00
3:56 PM,100.9,33.1,9,29.94,10.0,Variable,5.8,-,N/A,,Mostly Cloudy,0,2013-06-28 22:56:00
4:56 PM,104.0,28.9,7,29.92,10.0,West,6.9,-,N/A,,Mostly Cloudy,260,2013-06-28 23:56:00
5:56 PM,102.9,28.9,7,29.91,10.0,WNW,9.2,-,N/A,,Mostly Cloudy,300,2013-06-29 00:56:00
6:56 PM,96.1,35.1,12,29.92,10.0,West,25.3,32.2,N/A,,Mostly Cloudy,270,2013-06-29 01:56:00
7:56 PM,93.0,37.9,15,29.92,10.0,WNW,13.8,23.0,N/A,,Mostly Cloudy,290,2013-06-29 02:56:00
8:56 PM,90.0,37.0,15,29.93,10.0,WNW,9.2,-,N/A,,Mostly Cloudy,300,2013-06-29 03:56:00
9:56 PM,82.0,37.0,20,29.95,10.0,Calm,Calm,-,N/A,,Mostly Cloudy,0,2013-06-29 04:56:00
10:56 PM,80.1,39.0,23,29.96,10.0,SSW,4.6,-,N/A,,Clear,210,2013-06-29 05:56:00
11:56 PM,77.0,37.9,24,29.98,10.0,Variable,3.5,-,N/A,,Clear,0,2013-06-29 06:56:00